| time (UTC) | temp F | wind direction | speed MPH | gust MPH | rain 1hr in | rain 24hr in | rain mn in | humidity % | barometer mb |
| 20260507194523 | 51 | 243 | 9.0 | 15.0 | 0.00 | 0.01 | 0.00 | 62 | 1010.9 |
| 20260507193046 | 51 | 265 | 6.0 | 16.0 | 0.00 | 0.01 | 0.00 | 60 | 1011.0 |
| 20260507191600 | 52 | 340 | 9.0 | 21.0 | 0.00 | 0.01 | 0.00 | 61 | 1011.2 |
| 20260507190033 | 52 | 257 | 6.0 | 19.0 | 0.00 | 0.02 | 0.00 | 60 | 1011.2 |
| 20260507184552 | 49 | 344 | 11.0 | 18.0 | 0.00 | 0.02 | 0.00 | 65 | 1011.5 |
| 20260507183040 | 49 | 333 | 13.0 | 19.0 | 0.00 | 0.02 | 0.00 | 63 | 1011.6 |
| 20260507181520 | 50 | 337 | 12.0 | 21.0 | 0.00 | 0.02 | 0.00 | 62 | 1011.7 |
| 20260507180051 | 50 | 9 | 8.0 | 14.0 | 0.00 | 0.03 | 0.00 | 63 | 1011.7 |
| 20260507174506 | 50 | 13 | 7.0 | 18.0 | 0.00 | 0.03 | 0.00 | 67 | 1011.7 |
| 20260507173030 | 50 | 288 | 7.0 | 14.0 | 0.00 | 0.03 | 0.00 | 65 | 1011.8 |
| 20260507171601 | 49 | 197 | 5.0 | 14.0 | 0.00 | 0.03 | 0.00 | 66 | 1011.9 |
| 20260507170016 | 48 | 329 | 7.0 | 19.0 | 0.00 | 0.04 | 0.00 | 66 | 1012.2 |
| 20260507164536 | 50 | 326 | 9.0 | 19.0 | 0.00 | 0.04 | 0.00 | 63 | 1012.2 |
| 20260507163100 | 52 | 342 | 15.0 | 26.0 | 0.00 | 0.04 | 0.00 | 58 | 1012.2 |
| 20260507161532 | 51 | 278 | 7.0 | 18.0 | 0.00 | 0.04 | 0.00 | 64 | 1012.2 |
| 20260507160048 | 51 | 288 | 8.0 | 15.0 | 0.00 | 0.05 | 0.00 | 65 | 1012.4 |
| 20260507154525 | 50 | 241 | 5.0 | 22.0 | 0.00 | 0.05 | 0.00 | 66 | 1012.4 |
| 20260507153011 | 50 | 354 | 5.0 | 15.0 | 0.00 | 0.05 | 0.00 | 65 | 1012.8 |
| 20260507151558 | 49 | 208 | 3.0 | 17.0 | 0.00 | 0.05 | 0.00 | 67 | 1013.0 |
| 20260507150051 | 47 | 271 | 7.0 | 19.0 | 0.00 | 0.05 | 0.00 | 68 | 1013.0 |
| 20260507144508 | 49 | 220 | 8.0 | 15.0 | 0.00 | 0.05 | 0.00 | 63 | 1013.0 |
| 20260507143035 | 49 | 138 | 4.0 | 9.0 | 0.00 | 0.05 | 0.00 | 65 | 1013.0 |
| 20260507141553 | 47 | 325 | 10.0 | 15.0 | 0.00 | 0.05 | 0.00 | 64 | 1013.3 |
| 20260507140017 | 47 | 233 | 4.0 | 12.0 | 0.00 | 0.11 | 0.00 | 68 | 1013.4 |
| 20260507134536 | 47 | 222 | 5.0 | 10.0 | 0.00 | 0.11 | 0.00 | 72 | 1013.4 |
| 20260507133054 | 45 | 293 | 5.0 | 12.0 | 0.00 | 0.11 | 0.00 | 71 | 1013.4 |
| 20260507131521 | 44 | 232 | 6.0 | 12.0 | 0.00 | 0.11 | 0.00 | 75 | 1013.5 |
| 20260507130054 | 44 | 286 | 7.0 | 13.0 | 0.00 | 0.23 | 0.00 | 74 | 1013.6 |
| 20260507124619 | 43 | 340 | 1.0 | 8.0 | 0.00 | 0.23 | 0.00 | 73 | 1013.5 |
| 20260507123040 | 41 | 341 | 7.0 | 12.0 | 0.00 | 0.23 | 0.00 | 72 | 1013.4 |
| 20260507121503 | 40 | 49 | 5.0 | 9.0 | 0.00 | 0.23 | 0.00 | 77 | 1013.4 |
| 20260507120043 | 40 | 233 | 3.0 | 9.0 | 0.00 | 0.30 | 0.00 | 82 | 1013.6 |
| 20260507114507 | 40 | 281 | 5.0 | 8.0 | 0.00 | 0.30 | 0.00 | 83 | 1013.6 |
| 20260507113037 | 39 | 135 | 1.0 | 3.0 | 0.00 | 0.30 | 0.00 | 87 | 1013.5 |
| 20260507111503 | 36 | 117 | 0.0 | 3.0 | 0.00 | 0.30 | 0.00 | 85 | 1013.3 |
| 20260507110031 | 36 | 28 | 1.0 | 3.0 | 0.00 | 0.34 | 0.00 | 86 | 1013.2 |
| 20260507104556 | 33 | 331 | 1.0 | 3.0 | 0.00 | 0.34 | 0.00 | 86 | 1013.2 |
| 20260507103015 | 31 | 46 | 2.0 | 3.0 | 0.00 | 0.34 | 0.00 | 85 | 1013.0 |
| 20260507101548 | 31 | 35 | 2.0 | 4.0 | 0.00 | 0.34 | 0.00 | 85 | 1013.0 |
| 20260507100113 | 32 | 350 | 4.0 | 6.0 | 0.00 | 0.38 | 0.00 | 85 | 1012.8 |
| 20260507094533 | 32 | 1 | 3.0 | 5.0 | 0.00 | 0.38 | 0.00 | 84 | 1012.7 |
| 20260507093019 | 33 | 1 | 3.0 | 5.0 | 0.00 | 0.38 | 0.00 | 84 | 1012.9 |
| 20260507091548 | 33 | 349 | 2.0 | 5.0 | 0.00 | 0.38 | 0.00 | 84 | 1012.9 |
| 20260507090023 | 34 | 1 | 3.0 | 5.0 | 0.00 | 0.39 | 0.00 | 83 | 1013.0 |
| 20260507084550 | 35 | 327 | 4.0 | 6.0 | 0.00 | 0.39 | 0.00 | 84 | 1013.1 |
| 20260507083004 | 35 | 347 | 2.0 | 7.0 | 0.00 | 0.39 | 0.00 | 83 | 1012.9 |
| 20260507081528 | 36 | 1 | 1.0 | 3.0 | 0.00 | 0.39 | 0.00 | 82 | 1012.9 |
| 20260507080046 | 37 | 318 | 1.0 | 4.0 | 0.00 | 0.39 | 0.00 | 82 | 1012.8 |
| 20260507074506 | 38 | 135 | 1.0 | 5.0 | 0.00 | 0.39 | 0.00 | 82 | 1012.7 |
| 20260507073046 | 39 | 347 | 2.0 | 7.0 | 0.00 | 0.39 | 0.00 | 82 | 1012.6 |
| 20260507071552 | 40 | 335 | 3.0 | 7.0 | 0.00 | 0.39 | 0.00 | 82 | 1012.6 |
| 20260507070017 | 40 | 347 | 3.0 | 7.0 | 0.00 | 0.39 | 0.00 | 82 | 1012.5 |
| 20260507064544 | 40 | 336 | 3.0 | 8.0 | 0.00 | 0.39 | 0.00 | 82 | 1012.8 |
| 20260507063034 | 40 | 331 | 7.0 | 13.0 | 0.00 | 0.39 | 0.00 | 82 | 1012.7 |
| 20260507061508 | 40 | 324 | 4.0 | 13.0 | 0.00 | 0.39 | 0.00 | 82 | 1012.7 |
| 20260507060051 | 40 | 348 | 5.0 | 15.0 | 0.00 | 0.39 | 0.00 | 82 | 1012.8 |
| 20260507054512 | 40 | 341 | 7.0 | 17.0 | 0.00 | 0.39 | 0.00 | 82 | 1012.5 |
| 20260507053034 | 41 | 344 | 8.0 | 19.0 | 0.00 | 0.39 | 0.00 | 82 | 1012.8 |
| 20260507051601 | 41 | 339 | 10.0 | 18.0 | 0.00 | 0.39 | 0.00 | 83 | 1012.9 |
| 20260507050034 | 42 | 314 | 8.0 | 19.0 | 0.00 | 0.39 | 0.00 | 84 | 1012.7 |
| 20260507044546 | 42 | 321 | 5.0 | 19.0 | 0.00 | 0.39 | 0.00 | 85 | 1012.6 |
| 20260507043104 | 42 | 306 | 7.0 | 20.0 | 0.00 | 0.39 | 0.00 | 85 | 1012.7 |
| 20260507041531 | 43 | 350 | 5.0 | 16.0 | 0.00 | 0.39 | 0.00 | 85 | 1012.4 |
| 20260507040041 | 43 | 315 | 6.0 | 13.0 | 0.00 | 0.39 | 0.39 | 86 | 1012.1 |
| 20260507034559 | 43 | 318 | 7.0 | 13.0 | 0.00 | 0.39 | 0.39 | 87 | 1011.5 |
| 20260507033034 | 43 | 124 | 1.0 | 6.0 | 0.00 | 0.39 | 0.39 | 86 | 1011.8 |
| 20260507031545 | 42 | 117 | 0.0 | 2.0 | 0.00 | 0.39 | 0.39 | 86 | 1011.8 |
| 20260507030001 | 42 | 165 | 1.0 | 3.0 | 0.00 | 0.39 | 0.39 | 86 | 1012.0 |
| 20260507024528 | 42 | 142 | 1.0 | 3.0 | 0.00 | 0.39 | 0.39 | 86 | 1011.9 |
| 20260507023046 | 42 | 152 | 0.0 | 3.0 | 0.00 | 0.39 | 0.39 | 86 | 1012.0 |
| 20260507021505 | 42 | 269 | 1.0 | 2.0 | 0.00 | 0.39 | 0.39 | 86 | 1011.9 |
| 20260507020105 | 42 | 161 | 0.0 | 3.0 | 0.00 | 0.39 | 0.39 | 86 | 1012.0 |
| 20260507014545 | 42 | 178 | 1.0 | 3.0 | 0.00 | 0.39 | 0.39 | 86 | 1012.2 |
| 20260507013025 | 42 | 314 | 1.0 | 2.0 | 0.00 | 0.39 | 0.39 | 86 | 1012.2 |
| 20260507011541 | 42 | 139 | 2.0 | 3.0 | 0.00 | 0.39 | 0.39 | 86 | 1012.0 |
| 20260507010002 | 42 | 117 | 1.0 | 2.0 | 0.00 | 0.39 | 0.39 | 85 | 1012.0 |
| 20260507004536 | 42 | 124 | 1.0 | 3.0 | 0.00 | 0.39 | 0.39 | 85 | 1011.7 |
| 20260507003055 | 43 | 324 | 1.0 | 5.0 | 0.00 | 0.39 | 0.39 | 85 | 1011.4 |
| 20260507001528 | 43 | 255 | 2.0 | 6.0 | 0.00 | 0.39 | 0.39 | 85 | 1011.5 |
| 20260507000050 | 43 | 314 | 1.0 | 5.0 | 0.00 | 0.39 | 0.39 | 85 | 1011.3 |
| 20260506234533 | 43 | 310 | 3.0 | 7.0 | 0.00 | 0.39 | 0.39 | 85 | 1011.2 |
| 20260506233043 | 43 | 262 | 1.0 | 6.0 | 0.00 | 0.39 | 0.39 | 85 | 1010.9 |
| 20260506231532 | 43 | 286 | 1.0 | 3.0 | 0.00 | 0.39 | 0.39 | 85 | 1010.8 |
| 20260506224543 | 43 | 295 | 2.0 | 10.0 | 0.00 | 0.39 | 0.39 | 84 | 1010.4 |
| 20260506223042 | 43 | 342 | 4.0 | 12.0 | 0.00 | 0.39 | 0.39 | 84 | 1010.3 |
| 20260506221548 | 43 | 324 | 5.0 | 11.0 | 0.00 | 0.39 | 0.39 | 85 | 1010.4 |
| 20260506220014 | 44 | 341 | 4.0 | 10.0 | 0.00 | 0.39 | 0.39 | 86 | 1010.4 |
| 20260506214531 | 43 | 231 | 3.0 | 11.0 | 0.00 | 0.39 | 0.39 | 86 | 1010.2 |
| 20260506213103 | 43 | 319 | 11.0 | 19.0 | 0.00 | 0.39 | 0.39 | 86 | 1010.1 |
| 20260506211519 | 43 | 316 | 9.0 | 17.0 | 0.00 | 0.39 | 0.39 | 86 | 1010.0 |
| 20260506210039 | 43 | 307 | 8.0 | 18.0 | 0.00 | 0.39 | 0.39 | 87 | 1009.9 |
| 20260506204559 | 43 | 323 | 8.0 | 20.0 | 0.00 | 0.39 | 0.39 | 87 | 1009.5 |
| 20260506203021 | 43 | 323 | 7.0 | 21.0 | 0.00 | 0.39 | 0.39 | 86 | 1009.1 |
| 20260506201553 | 44 | 350 | 12.0 | 21.0 | 0.01 | 0.39 | 0.39 | 86 | 1008.9 |
| 20260506200022 | 44 | 310 | 6.0 | 17.0 | 0.01 | 0.50 | 0.39 | 86 | 1008.9 |